DW4827 Weather Reports


Display with metric or nautical units.
time (UTC)temp
F
wind
direction
speed
MPH
gust
MPH
rain 1hr
in
rain 24hr
in
rain mn
in
humidity
%
barometer
mb
20260505090005 53 328 0.0 0.0 0.00 0.00 0.00 92 1010.3
20260505082005 54 328 0.0 0.0 0.00 0.00 0.00 91 1010.3
20260505081004 54 328 0.0 0.0 0.00 0.00 0.00 90 1010.3
20260505080005 55 328 0.0 0.0 0.00 0.00 0.00 90 1010.3
20260505075005 55 328 0.0 0.0 0.00 0.00 0.00 89 1010.2
20260505074005 55 328 0.0 0.0 0.00 0.00 0.00 89 1010.2
20260505073005 56 328 0.0 0.0 0.00 0.00 0.00 88 1009.6
20260505072005 56 328 0.0 0.0 0.00 0.00 0.00 87 1009.6
20260505071005 56 328 0.0 2.0 0.00 0.00 0.00 87 1009.6
20260505070005 57 329 1.0 2.0 0.00 0.00 0.00 86 1009.6
20260505065005 57 123 0.0 2.0 0.00 0.00 0.00 86 1009.2
20260505064005 57 123 0.0 0.0 0.00 0.00 0.00 85 1009.2
20260505063005 58 123 0.0 0.0 0.00 0.00 0.00 85 1009.2
20260505062005 58 123 0.0 1.0 0.00 0.00 0.00 84 1009.2
20260505061005 58 123 0.0 2.0 0.00 0.00 0.00 83 1009.2
20260505060004 59 259 0.0 0.0 0.00 0.00 0.00 84 1009.0
20260505055005 59 259 1.0 3.0 0.00 0.00 0.00 83 1009.0
20260505054005 60 290 2.0 5.0 0.00 0.00 0.00 82 1009.0
20260505053005 60 288 2.0 3.0 0.00 0.00 0.00 82 1009.0
20260505041005 64 312 0.0 0.0 0.00 0.00 0.00 73 1007.7
20260505040005 65 312 0.0 0.0 0.00 0.00 0.00 72 1007.7
20260505035007 66 312 0.0 0.0 0.00 0.00 0.00 67 1007.4
20260505034007 66 312 0.0 0.0 0.00 0.00 0.00 65 1007.4
20260505033008 67 312 0.0 0.0 0.00 0.00 0.00 64 1007.4
20260505032007 68 312 0.0 0.0 0.00 0.00 0.00 62 1007.4
20260505031008 70 312 0.0 0.0 0.00 0.00 0.00 61 1007.1
20260505030007 71 312 0.0 0.0 0.00 0.00 0.00 56 1007.1
20260505025008 72 312 0.0 0.0 0.00 0.00 0.00 54 1007.1
20260505024007 74 312 0.0 1.0 0.00 0.00 0.00 51 1007.1
20260505023008 75 312 1.0 3.0 0.00 0.00 0.00 48 1007.1
20260505022008 75 304 1.0 3.0 0.00 0.00 0.00 46 1007.1
20260505021008 76 279 2.0 6.0 0.00 0.00 0.00 45 1007.2
20260505020007 76 283 2.0 5.0 0.00 0.00 0.00 46 1007.1
20260505014008 77 305 2.0 5.0 0.00 0.00 0.00 41 1007.1
20260505013007 78 303 3.0 8.0 0.00 0.00 0.00 39 1007.1
20260505012007 78 295 4.0 9.0 0.00 0.00 0.00 39 1007.3
20260505011008 78 280 5.0 12.0 0.00 0.00 0.00 39 1007.3
20260505004007 78 294 3.0 10.0 0.00 0.00 0.00 39 1007.3
20260505003008 79 304 3.0 12.0 0.00 0.00 0.00 40 1007.2
20260505002007 79 288 7.0 12.0 0.00 0.00 0.00 39 1007.2
20260505001007 80 271 6.0 12.0 0.00 0.00 0.00 37 1007.2
20260505000007 80 284 5.0 10.0 0.00 0.00 0.00 37 1007.4
20260504235008 80 301 4.0 9.0 0.00 0.00 0.00 38 1007.4
20260504234007 80 280 3.0 10.0 0.00 0.00 0.00 36 1007.4
20260504233006 81 298 4.0 12.0 0.00 0.00 0.00 35 1007.4
20260504232008 81 301 5.0 12.0 0.00 0.00 0.00 35 1007.4
20260504231008 82 308 6.0 13.0 0.00 0.00 0.00 32 1007.4
20260504230006 82 280 5.0 12.0 0.00 0.00 0.00 33 1007.7
20260504225007 82 300 5.0 10.0 0.00 0.00 0.00 36 1007.7
20260504224006 82 274 6.0 12.0 0.00 0.00 0.00 36 1007.7
20260504223007 82 267 4.0 12.0 0.00 0.00 0.00 38 1007.8
20260504222006 82 275 8.0 12.0 0.00 0.00 0.00 35 1008.1
20260504221007 82 296 7.0 12.0 0.00 0.00 0.00 37 1008.1
20260504220006 82 276 3.0 15.0 0.00 0.00 0.00 35 1008.1
20260504215007 82 300 4.0 12.0 0.00 0.00 0.00 36 1008.1
20260504214006 82 263 5.0 12.0 0.00 0.00 0.00 36 1008.1
20260504212007 81 307 6.0 13.0 0.00 0.00 0.00 36 1008.2
20260504211008 81 288 6.0 10.0 0.00 0.00 0.00 38 1008.3
20260504204006 80 327 6.0 12.0 0.00 0.00 0.00 35 1008.4
20260504203007 81 288 7.0 12.0 0.00 0.00 0.00 37 1008.4
20260504202007 81 316 6.0 12.0 0.00 0.00 0.00 40 1008.5
20260504201006 80 274 5.0 8.0 0.00 0.00 0.00 43 1008.5
20260504200008 79 330 6.0 12.0 0.00 0.00 0.00 41 1008.7
20260504195005 79 292 5.0 12.0 0.00 0.00 0.00 44 1008.7
20260504194006 79 269 6.0 12.0 0.00 0.00 0.00 42 1008.8
20260504192006 78 269 7.0 12.0 0.00 0.00 0.00 43 1008.9
20260504191007 78 267 5.0 12.0 0.00 0.00 0.00 42 1008.9
20260504190006 78 274 3.0 9.0 0.00 0.00 0.00 41 1008.9
20260504184006 78 274 5.0 10.0 0.00 0.00 0.00 43 1009.1
20260504183006 78 337 2.0 7.0 0.00 0.00 0.00 43 1009.1
20260504182006 77 322 4.0 6.0 0.00 0.00 0.00 42 1009.1
20260504181007 77 294 5.0 10.0 0.00 0.00 0.00 45 1009.0
20260504180006 77 327 3.0 10.0 0.00 0.00 0.00 44 1009.0
20260504175007 76 313 4.0 10.0 0.00 0.00 0.00 44 1009.0
20260504174006 76 354 2.0 10.0 0.00 0.00 0.00 49 1009.0
20260504173007 75 272 4.0 10.0 0.00 0.00 0.00 51 1009.1
20260504172006 75 284 3.0 5.0 0.00 0.00 0.00 54 1009.1
20260504171007 73 279 4.0 6.0 0.00 0.00 0.00 54 1009.1
20260504151006 55 337 0.0 0.0 0.00 0.00 0.00 91 1008.9